JBU3212 KCLT-KMCO

Flight info

Callsign JBU3212
Flight time 1h 16m
Altitude 34000
Route ICONS5 NOOKS WURFL Q83 ROYCO Q85 LPERD SNFLD3
Aircraft A321/M-SDE3FGHIRWY/LB1

Departure

Time 2026-04-20 01:13
Airport Charlotte Douglas International Airport (KCLT)

Arrival

Time 2026-04-20 02:29
Airport Orlando International Airport (KMCO)
Time Latitude Longitude Altitude Speed Heading
2026-04-20 00:12 35.21976 -80.94751 733 ft 0 kts
2026-04-20 01:02 35.21966 -80.94751 731 ft 3 kts
2026-04-20 01:03 35.21947 -80.94752 732 ft 3 kts 355°
2026-04-20 01:03 35.21929 -80.94746 731 ft 3 kts 324°
2026-04-20 01:03 35.21915 -80.94730 731 ft 3 kts 294°
2026-04-20 01:03 35.21910 -80.94712 731 ft 0 kts 270°
2026-04-20 01:06 35.21910 -80.94713 731 ft 0 kts 269°
2026-04-20 01:06 35.21907 -80.94726 732 ft 4 kts 252°
2026-04-20 01:06 35.21884 -80.94774 732 ft 9 kts 249°
2026-04-20 01:06 35.21875 -80.94866 733 ft 12 kts 266°
2026-04-20 01:07 35.21868 -80.94969 733 ft 12 kts 263°
2026-04-20 01:07 35.21813 -80.95036 734 ft 13 kts 182°
2026-04-20 01:07 35.21712 -80.95029 733 ft 15 kts 173°
2026-04-20 01:07 35.21605 -80.95020 733 ft 17 kts 175°
2026-04-20 01:08 35.21479 -80.95009 733 ft 19 kts 175°
2026-04-20 01:08 35.21332 -80.94997 733 ft 22 kts 176°
2026-04-20 01:08 35.21175 -80.94983 732 ft 23 kts 176°
2026-04-20 01:08 35.21010 -80.94969 729 ft 25 kts 176°
2026-04-20 01:09 35.20824 -80.94951 731 ft 25 kts 175°
2026-04-20 01:09 35.20657 -80.94940 733 ft 24 kts 176°
2026-04-20 01:09 35.20489 -80.94925 733 ft 24 kts 176°
2026-04-20 01:09 35.20320 -80.94910 733 ft 25 kts 176°
2026-04-20 01:10 35.20158 -80.94896 733 ft 16 kts 176°
2026-04-20 01:10 35.20071 -80.94890 733 ft 1 kts 176°
2026-04-20 01:10 35.20058 -80.94890 733 ft 3 kts 184°
2026-04-20 01:11 35.20039 -80.94899 733 ft 3 kts 209°
2026-04-20 01:11 35.20024 -80.94925 733 ft 6 kts 244°
2026-04-20 01:11 35.20013 -80.95005 734 ft 14 kts 267°
2026-04-20 01:11 35.20078 -80.95083 735 ft 16 kts 352°
2026-04-20 01:12 35.20259 -80.95106 738 ft 52 kts 356°
2026-04-20 01:12 35.20858 -80.95157 738 ft 119 kts 356°
2026-04-20 01:12 35.21870 -80.95244 759 ft 168 kts 355°
2026-04-20 01:12 35.23118 -80.95339 1079 ft 192 kts 355°
2026-04-20 01:13 35.24479 -80.95443 1708 ft 199 kts 355°
2026-04-20 01:13 35.25873 -80.95556 2408 ft 205 kts 354°
2026-04-20 01:13 35.27362 -80.95674 2776 ft 224 kts 355°
2026-04-20 01:13 35.28963 -80.95797 3162 ft 239 kts 355°
2026-04-20 01:14 35.30662 -80.95927 3556 ft 243 kts 355°
2026-04-20 01:14 35.32336 -80.96040 3931 ft 245 kts 356°
2026-04-20 01:14 35.34044 -80.96143 4313 ft 247 kts 356°
2026-04-20 01:14 35.35767 -80.96239 4698 ft 248 kts 357°
2026-04-20 01:15 35.37493 -80.96404 5094 ft 251 kts 345°
2026-04-20 01:15 35.39055 -80.97342 5817 ft 254 kts 321°
2026-04-20 01:15 35.40137 -80.99049 6579 ft 259 kts 295°
2026-04-20 01:15 35.40451 -81.01234 7296 ft 266 kts 268°
2026-04-20 01:16 35.39856 -81.03397 8041 ft 277 kts 240°
2026-04-20 01:16 35.38420 -81.05003 8765 ft 289 kts 211°
2026-04-20 01:16 35.36422 -81.05535 9462 ft 303 kts 182°
2026-04-20 01:16 35.34297 -81.05361 10157 ft 308 kts 179°
2026-04-20 01:17 35.32112 -81.05113 10426 ft 327 kts 179°
2026-04-20 01:17 35.29763 -81.04828 10553 ft 350 kts 179°
2026-04-20 01:17 35.27303 -81.04526 10943 ft 360 kts 179°
2026-04-20 01:17 35.24792 -81.04216 11569 ft 363 kts 179°
2026-04-20 01:18 35.22276 -81.03914 12238 ft 365 kts 179°
2026-04-20 01:18 35.19739 -81.03620 12909 ft 367 kts 180°
2026-04-20 01:18 35.17195 -81.03336 13576 ft 368 kts 180°
2026-04-20 01:18 35.14630 -81.03054 14224 ft 370 kts 180°
2026-04-20 01:19 35.12064 -81.02772 14804 ft 373 kts 181°
2026-04-20 01:19 35.09466 -81.02488 15372 ft 376 kts 181°
2026-04-20 01:19 35.06843 -81.02202 15921 ft 380 kts 181°
2026-04-20 01:19 35.04207 -81.01914 16492 ft 383 kts 181°
2026-04-20 01:20 35.01544 -81.01621 17050 ft 386 kts 181°
2026-04-20 01:20 34.98889 -81.01328 17601 ft 389 kts 181°
2026-04-20 01:20 34.96142 -81.01024 18155 ft 392 kts 181°
2026-04-20 01:20 34.93451 -81.00728 18672 ft 395 kts 181°
2026-04-20 01:21 34.90703 -81.00424 19162 ft 398 kts 181°
2026-04-20 01:21 34.87942 -81.00115 19681 ft 399 kts 181°
2026-04-20 01:21 34.85174 -80.99804 20196 ft 401 kts 182°
2026-04-20 01:21 34.82393 -80.99497 20741 ft 402 kts 182°
2026-04-20 01:22 34.79597 -80.99189 21262 ft 404 kts 182°
2026-04-20 01:22 34.76790 -80.98880 21784 ft 405 kts 182°
2026-04-20 01:22 34.73983 -80.98570 22292 ft 407 kts 183°
2026-04-20 01:22 34.71153 -80.98259 22777 ft 409 kts 183°
2026-04-20 01:23 34.68309 -80.97946 23131 ft 411 kts 183°
2026-04-20 01:23 34.65458 -80.97629 23204 ft 410 kts 183°
2026-04-20 01:23 34.62622 -80.97338 23202 ft 407 kts 186°
2026-04-20 01:23 34.59829 -80.97450 23201 ft 399 kts 193°
2026-04-20 01:24 34.57060 -80.97715 23198 ft 399 kts 193°
2026-04-20 01:24 34.54282 -80.97982 23306 ft 401 kts 193°
2026-04-20 01:24 34.51494 -80.98248 23781 ft 403 kts 193°
2026-04-20 01:24 34.48691 -80.98516 24169 ft 405 kts 193°
2026-04-20 01:25 34.45879 -80.98781 24553 ft 406 kts 193°
2026-04-20 01:25 34.43049 -80.99048 24933 ft 408 kts 193°
2026-04-20 01:25 34.40226 -80.99315 25299 ft 409 kts 193°
2026-04-20 01:25 34.37382 -80.99585 25667 ft 411 kts 194°
2026-04-20 01:26 34.34558 -80.99849 26029 ft 412 kts 194°
2026-04-20 01:26 34.31695 -81.00116 26383 ft 414 kts 194°
2026-04-20 01:26 34.28832 -81.00383 26726 ft 415 kts 194°
2026-04-20 01:26 34.25936 -81.00654 27084 ft 417 kts 194°
2026-04-20 01:27 34.23044 -81.00924 27431 ft 418 kts 194°
2026-04-20 01:27 34.20138 -81.01195 27769 ft 420 kts 194°
2026-04-20 01:27 34.17224 -81.01464 28095 ft 421 kts 194°
2026-04-20 01:27 34.14300 -81.01735 28412 ft 423 kts 194°
2026-04-20 01:28 34.11366 -81.02007 28742 ft 424 kts 194°
2026-04-20 01:28 34.08411 -81.02283 29043 ft 426 kts 194°
2026-04-20 01:28 34.05450 -81.02562 29352 ft 427 kts 194°
2026-04-20 01:28 34.02487 -81.02838 29653 ft 429 kts 195°
2026-04-20 01:29 33.99509 -81.03114 29965 ft 431 kts 195°
2026-04-20 01:29 33.96493 -81.03331 30278 ft 435 kts 193°
2026-04-20 01:29 33.93451 -81.03396 30548 ft 440 kts 191°
2026-04-20 01:29 33.90384 -81.03346 30910 ft 440 kts 189°
2026-04-20 01:30 33.87334 -81.03246 31270 ft 439 kts 189°
2026-04-20 01:30 33.84290 -81.03142 31629 ft 437 kts 189°
2026-04-20 01:30 33.81254 -81.03056 31976 ft 435 kts 189°
2026-04-20 01:30 33.78240 -81.02997 32332 ft 433 kts 190°
2026-04-20 01:31 33.75230 -81.02963 32668 ft 431 kts 191°
2026-04-20 01:31 33.72234 -81.02943 33021 ft 430 kts 191°
2026-04-20 01:31 33.69286 -81.02930 33363 ft 428 kts 191°
2026-04-20 01:31 33.66278 -81.02915 33700 ft 427 kts 191°
2026-04-20 01:32 33.63340 -81.02896 34024 ft 427 kts 191°
2026-04-20 01:32 33.60367 -81.02874 34155 ft 426 kts 191°
2026-04-20 01:32 33.54478 -81.02812 34182 ft 422 kts 191°
2026-04-20 01:33 33.48617 -81.02760 34180 ft 422 kts 191°
2026-04-20 01:33 33.42738 -81.02710 34190 ft 423 kts 191°
2026-04-20 01:34 33.36838 -81.02654 34186 ft 424 kts 191°
2026-04-20 01:34 33.30942 -81.02600 34175 ft 424 kts 191°
2026-04-20 01:35 33.25027 -81.02550 34170 ft 425 kts 191°
2026-04-20 01:35 33.19111 -81.02494 34167 ft 425 kts 191°
2026-04-20 01:36 33.13200 -81.02442 34171 ft 426 kts 191°
2026-04-20 01:36 33.07276 -81.02388 34175 ft 426 kts 191°
2026-04-20 01:37 33.01340 -81.02326 34177 ft 426 kts 191°
2026-04-20 01:37 32.95414 -81.02271 34176 ft 426 kts 191°
2026-04-20 01:38 32.89484 -81.02217 34172 ft 426 kts 191°
2026-04-20 01:38 32.83585 -81.02167 34173 ft 426 kts 191°
2026-04-20 01:39 32.77662 -81.02117 34171 ft 426 kts 191°
2026-04-20 01:39 32.71728 -81.02070 34167 ft 426 kts 191°
2026-04-20 01:40 32.65805 -81.02008 34167 ft 426 kts 191°
2026-04-20 01:40 32.60830 -81.01959 34162 ft 426 kts 191°
2026-04-20 01:41 32.54950 -81.01894 34165 ft 426 kts 191°
2026-04-20 01:41 32.49031 -81.01896 34161 ft 424 kts 192°
2026-04-20 01:42 32.43138 -81.02031 34161 ft 423 kts 193°
2026-04-20 01:42 32.37235 -81.02168 34157 ft 424 kts 192°
2026-04-20 01:43 32.31333 -81.02281 34159 ft 425 kts 192°
2026-04-20 01:43 32.25425 -81.02393 34161 ft 425 kts 192°
2026-04-20 01:44 32.19504 -81.02495 34157 ft 426 kts 192°
2026-04-20 01:44 32.13576 -81.02595 34159 ft 426 kts 192°
2026-04-20 01:45 32.07657 -81.02705 34111 ft 427 kts 192°
2026-04-20 01:45 32.01709 -81.02809 34108 ft 428 kts 192°
2026-04-20 01:46 31.95753 -81.02923 34103 ft 428 kts 193°
2026-04-20 01:46 31.89807 -81.03089 34110 ft 428 kts 193°
2026-04-20 01:47 31.83871 -81.03271 34112 ft 429 kts 193°
2026-04-20 01:47 31.77901 -81.03444 34119 ft 430 kts 193°
2026-04-20 01:48 31.71913 -81.03598 34125 ft 431 kts 193°
2026-04-20 01:48 31.65924 -81.03768 34131 ft 431 kts 193°
2026-04-20 01:49 31.59986 -81.04218 34133 ft 418 kts 202°
2026-04-20 01:49 31.57225 -81.05064 34135 ft 405 kts 211°
2026-04-20 01:49 31.54679 -81.06363 34141 ft 394 kts 218°
2026-04-20 01:50 31.49838 -81.09373 34143 ft 395 kts 218°
2026-04-20 01:50 31.44962 -81.12358 34150 ft 395 kts 217°
2026-04-20 01:51 31.40083 -81.15332 34157 ft 395 kts 217°
2026-04-20 01:51 31.35195 -81.18295 34165 ft 396 kts 217°
2026-04-20 01:52 31.30274 -81.21199 34159 ft 397 kts 217°
2026-04-20 01:52 31.25370 -81.24080 34161 ft 397 kts 217°
2026-04-20 01:53 31.20388 -81.26951 34158 ft 403 kts 212°
2026-04-20 01:53 31.17694 -81.27905 34155 ft 416 kts 202°
2026-04-20 01:53 31.14768 -81.28283 34152 ft 432 kts 192°
2026-04-20 01:54 31.08731 -81.28244 34149 ft 434 kts 191°
2026-04-20 01:54 31.02684 -81.28220 34147 ft 434 kts 192°
2026-04-20 01:55 30.96633 -81.28215 34158 ft 434 kts 192°
2026-04-20 01:55 30.90600 -81.28201 34161 ft 434 kts 191°
2026-04-20 01:56 30.84552 -81.28178 34160 ft 435 kts 191°
2026-04-20 01:56 30.78499 -81.28149 34163 ft 435 kts 191°
2026-04-20 01:57 30.72451 -81.28146 34160 ft 435 kts 192°
2026-04-20 01:57 30.66392 -81.28131 34160 ft 435 kts 191°
2026-04-20 01:58 30.60335 -81.28116 34155 ft 436 kts 191°
2026-04-20 01:58 30.57295 -81.28032 33995 ft 436 kts 189°
2026-04-20 01:58 30.54289 -81.27835 33718 ft 433 kts 187°
2026-04-20 01:59 30.51289 -81.27571 33445 ft 432 kts 187°
2026-04-20 01:59 30.48284 -81.27286 33179 ft 431 kts 187°
2026-04-20 01:59 30.45308 -81.27009 32917 ft 429 kts 187°
2026-04-20 01:59 30.42333 -81.26755 32658 ft 428 kts 187°
2026-04-20 02:00 30.39373 -81.26523 32400 ft 426 kts 187°
2026-04-20 02:00 30.36455 -81.26308 32145 ft 425 kts 187°
2026-04-20 02:00 30.33505 -81.26096 31884 ft 424 kts 187°
2026-04-20 02:00 30.30574 -81.25883 31633 ft 422 kts 187°
2026-04-20 02:01 30.27650 -81.25666 31393 ft 421 kts 187°
2026-04-20 02:01 30.24722 -81.25449 31140 ft 420 kts 187°
2026-04-20 02:01 30.21814 -81.25234 30891 ft 419 kts 187°
2026-04-20 02:01 30.18910 -81.25019 30643 ft 417 kts 187°
2026-04-20 02:02 30.16014 -81.24799 30401 ft 416 kts 186°
2026-04-20 02:02 30.13130 -81.24579 30153 ft 415 kts 186°
2026-04-20 02:02 30.10264 -81.24360 29876 ft 413 kts 186°
2026-04-20 02:02 30.07391 -81.24143 29620 ft 412 kts 186°
2026-04-20 02:03 30.04544 -81.23931 29348 ft 410 kts 186°
2026-04-20 02:03 30.01701 -81.23718 29082 ft 409 kts 186°
2026-04-20 02:03 29.98872 -81.23505 28824 ft 407 kts 186°
2026-04-20 02:03 29.96047 -81.23295 28547 ft 406 kts 186°
2026-04-20 02:04 29.93223 -81.23084 28281 ft 405 kts 186°
2026-04-20 02:04 29.90421 -81.22874 28024 ft 404 kts 186°
2026-04-20 02:04 29.87621 -81.22662 27765 ft 403 kts 185°
2026-04-20 02:04 29.84830 -81.22453 27506 ft 401 kts 186°
2026-04-20 02:05 29.82038 -81.22246 27248 ft 400 kts 185°
2026-04-20 02:05 29.79261 -81.22042 26994 ft 399 kts 185°
2026-04-20 02:05 29.76500 -81.21841 26742 ft 398 kts 185°
2026-04-20 02:05 29.73738 -81.21642 26485 ft 397 kts 185°
2026-04-20 02:06 29.70980 -81.21441 26242 ft 396 kts 185°
2026-04-20 02:06 29.68238 -81.21229 26001 ft 395 kts 185°
2026-04-20 02:06 29.65492 -81.20997 25766 ft 395 kts 184°
2026-04-20 02:06 29.62794 -81.20758 25530 ft 394 kts 184°
2026-04-20 02:07 29.60039 -81.20511 25302 ft 392 kts 184°
2026-04-20 02:07 29.57323 -81.20273 25067 ft 391 kts 184°
2026-04-20 02:07 29.54646 -81.20041 24837 ft 390 kts 184°
2026-04-20 02:07 29.51906 -81.19804 24606 ft 388 kts 184°
2026-04-20 02:08 29.49256 -81.19578 24376 ft 387 kts 184°
2026-04-20 02:08 29.46573 -81.19349 24146 ft 386 kts 184°
2026-04-20 02:08 29.43894 -81.19120 23925 ft 385 kts 184°
2026-04-20 02:08 29.41239 -81.18894 23706 ft 382 kts 184°
2026-04-20 02:09 29.38602 -81.18666 23324 ft 378 kts 184°
2026-04-20 02:09 29.35992 -81.18441 22894 ft 374 kts 184°
2026-04-20 02:09 29.33409 -81.18223 22456 ft 371 kts 184°
2026-04-20 02:09 29.30839 -81.18006 22026 ft 369 kts 184°
2026-04-20 02:10 29.28287 -81.17791 21581 ft 366 kts 184°
2026-04-20 02:10 29.25754 -81.17567 21164 ft 364 kts 184°
2026-04-20 02:10 29.23243 -81.17339 20735 ft 362 kts 183°
2026-04-20 02:10 29.20732 -81.17113 20314 ft 360 kts 183°
2026-04-20 02:11 29.18245 -81.16640 19888 ft 367 kts 172°
2026-04-20 02:11 29.15825 -81.15666 19454 ft 371 kts 166°
2026-04-20 02:11 29.13415 -81.14613 19009 ft 369 kts 166°
2026-04-20 02:11 29.11017 -81.13569 18578 ft 368 kts 166°
2026-04-20 02:12 29.08622 -81.12529 18104 ft 367 kts 166°
2026-04-20 02:12 29.06243 -81.11500 17663 ft 364 kts 167°
2026-04-20 02:12 29.03862 -81.10534 17109 ft 363 kts 168°
2026-04-20 02:12 29.01485 -81.09630 16736 ft 358 kts 168°
2026-04-20 02:13 28.99119 -81.08757 16319 ft 355 kts 168°
2026-04-20 02:13 28.96784 -81.08082 15916 ft 346 kts 178°
2026-04-20 02:13 28.94398 -81.07811 15546 ft 339 kts 181°
2026-04-20 02:13 28.92083 -81.07555 15200 ft 336 kts 180°
2026-04-20 02:14 28.89769 -81.07323 14843 ft 331 kts 185°
2026-04-20 02:14 28.87518 -81.07531 14503 ft 321 kts 197°
2026-04-20 02:14 28.85404 -81.08244 14176 ft 314 kts 205°
2026-04-20 02:14 28.83356 -81.09100 13839 ft 314 kts 205°
2026-04-20 02:15 28.81310 -81.09948 13487 ft 312 kts 205°
2026-04-20 02:15 28.79271 -81.10792 13158 ft 311 kts 205°
2026-04-20 02:15 28.77242 -81.11628 12833 ft 310 kts 204°
2026-04-20 02:15 28.75222 -81.12463 12494 ft 308 kts 204°
2026-04-20 02:16 28.73215 -81.13295 12184 ft 307 kts 204°
2026-04-20 02:16 28.71225 -81.14121 11951 ft 300 kts 204°
2026-04-20 02:16 28.69222 -81.14765 11659 ft 298 kts 197°
2026-04-20 02:16 28.67200 -81.15289 11236 ft 299 kts 197°
2026-04-20 02:17 28.65172 -81.15817 10901 ft 296 kts 197°
2026-04-20 02:17 28.63153 -81.16347 10472 ft 297 kts 197°
2026-04-20 02:17 28.61152 -81.16873 10163 ft 293 kts 196°
2026-04-20 02:17 28.59187 -81.17387 9468 ft 289 kts 195°
2026-04-20 02:18 28.57284 -81.17876 9141 ft 272 kts 195°
2026-04-20 02:18 28.55449 -81.18348 8933 ft 266 kts 195°
2026-04-20 02:18 28.53625 -81.18640 8806 ft 265 kts 183°
2026-04-20 02:18 28.51783 -81.18655 8578 ft 266 kts 182°
2026-04-20 02:19 28.49933 -81.18670 8239 ft 265 kts 182°
2026-04-20 02:19 28.48087 -81.18683 7876 ft 266 kts 182°
2026-04-20 02:19 28.46229 -81.18696 7571 ft 265 kts 181°
2026-04-20 02:19 28.44406 -81.18711 7238 ft 265 kts 181°
2026-04-20 02:20 28.42567 -81.18730 6874 ft 265 kts 181°
2026-04-20 02:20 28.40725 -81.18749 6488 ft 259 kts 181°
2026-04-20 02:20 28.38938 -81.18766 6077 ft 256 kts 181°
2026-04-20 02:20 28.37179 -81.18783 5718 ft 255 kts 181°
2026-04-20 02:21 28.33609 -81.18808 5093 ft 254 kts 180°
2026-04-20 02:21 28.31875 -81.18816 5018 ft 245 kts 180°
2026-04-20 02:21 28.30159 -81.18818 4917 ft 249 kts 180°
2026-04-20 02:22 28.28428 -81.18789 4632 ft 247 kts 179°
2026-04-20 02:22 28.26721 -81.18746 4522 ft 244 kts 179°
2026-04-20 02:22 28.25018 -81.18701 4335 ft 245 kts 179°
2026-04-20 02:22 28.23320 -81.18657 4063 ft 243 kts 179°
2026-04-20 02:23 28.21651 -81.18823 3755 ft 240 kts 199°
2026-04-20 02:23 28.20215 -81.19740 3476 ft 236 kts 226°
2026-04-20 02:23 28.19308 -81.21258 3354 ft 235 kts 252°
2026-04-20 02:23 28.19069 -81.23062 3237 ft 232 kts 277°
2026-04-20 02:24 28.19535 -81.24788 3110 ft 229 kts 302°
2026-04-20 02:24 28.20585 -81.26097 3012 ft 220 kts 326°
2026-04-20 02:24 28.21962 -81.26773 2881 ft 213 kts 349°
2026-04-20 02:24 28.23430 -81.26949 2762 ft 212 kts 355°
2026-04-20 02:25 28.24894 -81.27106 2699 ft 212 kts 354°
2026-04-20 02:25 28.26360 -81.27267 2543 ft 211 kts 354°
2026-04-20 02:25 28.27812 -81.27429 2384 ft 209 kts 354°
2026-04-20 02:25 28.29262 -81.27589 2220 ft 206 kts 354°
2026-04-20 02:26 28.30605 -81.27738 2074 ft 183 kts 353°
2026-04-20 02:26 28.31792 -81.27870 1945 ft 158 kts 353°
2026-04-20 02:26 28.32846 -81.27990 1808 ft 148 kts 354°
2026-04-20 02:26 28.33846 -81.28080 1658 ft 144 kts 355°
2026-04-20 02:27 28.34854 -81.28128 1466 ft 143 kts 357°
2026-04-20 02:27 28.35838 -81.28156 1294 ft 143 kts 358°
2026-04-20 02:27 28.36830 -81.28174 1111 ft 142 kts 358°
2026-04-20 02:27 28.37817 -81.28188 931 ft 143 kts 358°
2026-04-20 02:28 28.38827 -81.28200 750 ft 146 kts 357°
2026-04-20 02:28 28.39844 -81.28211 550 ft 147 kts 358°
2026-04-20 02:28 28.40871 -81.28220 313 ft 148 kts 358°
2026-04-20 02:28 28.41894 -81.28219 142 ft 147 kts 356°
2026-04-20 02:29 28.42858 -81.28235 104 ft 124 kts 357°
2026-04-20 02:29 28.43557 -81.28251 102 ft 74 kts 359°
2026-04-20 02:29 28.43810 -81.28286 107 ft 28 kts 327°
2026-04-20 02:29 28.43876 -81.28470 107 ft 18 kts 270°
2026-04-20 02:30 28.43874 -81.28569 107 ft 13 kts 268°
2026-04-20 02:30 28.43874 -81.28681 107 ft 16 kts 270°
2026-04-20 02:30 28.43873 -81.28837 107 ft 22 kts 270°
2026-04-20 02:30 28.43871 -81.29023 106 ft 25 kts 268°
2026-04-20 02:31 28.43869 -81.29219 102 ft 19 kts 258°
2026-04-20 02:31 28.43774 -81.29264 101 ft 16 kts 181°
2026-04-20 02:31 28.43648 -81.29263 103 ft 20 kts 180°
2026-04-20 02:31 28.43557 -81.29327 105 ft 14 kts 267°
2026-04-20 02:32 28.43553 -81.29444 106 ft 16 kts 269°
2026-04-20 02:32 28.43553 -81.29498 106 ft 8 kts 270°
2026-04-20 02:32 28.43551 -81.29686 103 ft 24 kts 269°
2026-04-20 02:32 28.43598 -81.29803 104 ft 16 kts 344°
2026-04-20 02:33 28.43720 -81.29811 103 ft 20 kts 350°
2026-04-20 02:33 28.43848 -81.29895 102 ft 23 kts 311°
2026-04-20 02:33 28.43900 -81.30062 103 ft 23 kts 275°
2026-04-20 02:33 28.43909 -81.30249 104 ft 25 kts 273°
2026-04-20 02:34 28.43919 -81.30476 99 ft 33 kts 274°
2026-04-20 02:34 28.43929 -81.30647 120 ft 29 kts 271°
2026-04-20 02:34 28.43944 -81.30890 105 ft 36 kts 274°
2026-04-20 02:34 28.43941 -81.31163 112 ft 34 kts 267°
2026-04-20 02:35 28.43929 -81.31386 101 ft 17 kts 265°
2026-04-20 02:35 28.43924 -81.31536 103 ft 22 kts 269°
2026-04-20 02:35 28.43898 -81.31669 104 ft 14 kts 209°
2026-04-20 02:35 28.43798 -81.31662 105 ft 17 kts 153°
2026-04-20 02:36 28.43674 -81.31625 102 ft 20 kts 188°
2026-04-20 02:36 28.43540 -81.31654 102 ft 16 kts 191°
2026-04-20 02:36 28.43452 -81.31674 102 ft 13 kts 192°
2026-04-20 02:36 28.43366 -81.31695 102 ft 11 kts 192°
2026-04-20 02:37 28.43292 -81.31678 102 ft 12 kts 124°
2026-04-20 02:37 28.43268 -81.31582 102 ft 13 kts 98°
2026-04-20 02:37 28.43289 -81.31501 102 ft 7 kts 60°
2026-04-20 02:37 28.43324 -81.31464 102 ft 7 kts 17°
2026-04-20 02:38 28.43369 -81.31486 102 ft 3 kts 328°